TimeEST,TemperatureF,Dew PointF,Humidity,Sea Level PressureIn,VisibilityMPH,Wind Direction,Wind SpeedMPH,Gust SpeedMPH,PrecipitationIn,Events,Conditions,WindDirDegrees,DateUTC
12:53 AM,34.0,32.0,92,30.02,0.2,Calm,Calm,-,N/A,Fog,Fog,0,2013-12-02 05:53:00
1:41 AM,33.8,30.2,87,30.02,0.2,Calm,Calm,-,N/A,Fog,Fog,0,2013-12-02 06:41:00
1:53 AM,33.1,32.0,96,30.02,0.8,NW,3.5,-,N/A,,Mist,320,2013-12-02 06:53:00
2:02 AM,33.8,30.2,87,30.02,1.2,Calm,Calm,-,N/A,,Overcast,0,2013-12-02 07:02:00
2:29 AM,33.8,32.0,93,30.01,2.5,Calm,Calm,-,N/A,,Overcast,0,2013-12-02 07:29:00
2:36 AM,33.8,32.0,93,30.01,4.0,Calm,Calm,-,N/A,,Overcast,0,2013-12-02 07:36:00
2:46 AM,33.8,33.8,100,30.01,4.0,Calm,Calm,-,N/A,,Overcast,0,2013-12-02 07:46:00
2:53 AM,34.0,33.1,96,30.01,4.0,Calm,Calm,-,N/A,,Overcast,0,2013-12-02 07:53:00
3:05 AM,33.8,32.0,93,30.01,1.8,Calm,Calm,-,N/A,,Overcast,0,2013-12-02 08:05:00
3:22 AM,33.8,32.0,93,30.00,2.5,Calm,Calm,-,N/A,,Mostly Cloudy,0,2013-12-02 08:22:00
3:34 AM,33.8,32.0,93,30.00,3.0,Calm,Calm,-,N/A,,Mostly Cloudy,0,2013-12-02 08:34:00
3:48 AM,33.8,32.0,93,29.99,2.0,Calm,Calm,-,N/A,,Overcast,0,2013-12-02 08:48:00
3:53 AM,33.1,32.0,96,30.00,2.0,Calm,Calm,-,N/A,,Overcast,0,2013-12-02 08:53:00
4:05 AM,33.8,32.0,93,30.00,3.0,Calm,Calm,-,N/A,,Mostly Cloudy,0,2013-12-02 09:05:00
4:53 AM,33.1,32.0,96,30.00,6.0,Calm,Calm,-,N/A,,Partly Cloudy,0,2013-12-02 09:53:00
5:53 AM,36.0,32.0,86,30.00,3.0,NE,3.5,-,N/A,,Clear,50,2013-12-02 10:53:00
6:25 AM,37.4,33.8,87,30.00,2.0,NNE,3.5,-,N/A,,Partly Cloudy,30,2013-12-02 11:25:00
6:31 AM,37.4,33.8,87,30.00,1.0,NE,3.5,-,N/A,,Mist,50,2013-12-02 11:31:00
6:38 AM,35.6,33.8,93,30.00,0.5,NE,3.5,-,N/A,Fog,Fog,50,2013-12-02 11:38:00
6:45 AM,35.6,33.8,93,29.99,0.2,NNE,3.5,-,N/A,Fog,Fog,30,2013-12-02 11:45:00
6:53 AM,36.0,34.0,93,29.99,0.2,NNE,3.5,-,N/A,Fog,Fog,20,2013-12-02 11:53:00
7:53 AM,36.0,35.1,97,29.99,0.2,NE,3.5,-,N/A,Fog,Fog,50,2013-12-02 12:53:00
8:26 AM,37.4,35.6,93,30.00,0.2,Calm,Calm,-,N/A,Fog,Fog,0,2013-12-02 13:26:00
8:51 AM,39.2,37.4,93,30.00,1.0,NE,3.5,-,N/A,,Overcast,40,2013-12-02 13:51:00
8:53 AM,39.0,37.0,93,30.00,1.5,Calm,Calm,-,N/A,,Overcast,0,2013-12-02 13:53:00
8:58 AM,39.2,37.4,93,30.00,3.0,NE,3.5,-,N/A,,Overcast,50,2013-12-02 13:58:00
9:53 AM,39.0,37.9,96,30.00,6.0,North,5.8,-,N/A,,Overcast,350,2013-12-02 14:53:00
10:21 AM,39.2,37.4,93,30.00,1.8,North,5.8,-,N/A,,Overcast,350,2013-12-02 15:21:00
10:32 AM,39.2,37.4,93,30.00,3.0,North,5.8,-,N/A,,Overcast,350,2013-12-02 15:32:00
10:53 AM,41.0,37.9,89,29.99,5.0,ENE,4.6,-,N/A,,Overcast,70,2013-12-02 15:53:00
11:10 AM,41.0,39.2,93,29.98,6.0,Calm,Calm,-,N/A,,Overcast,0,2013-12-02 16:10:00
12:53 PM,46.0,37.0,71,29.95,10.0,NNE,4.6,-,N/A,,Overcast,20,2013-12-02 17:53:00
1:53 PM,46.9,37.9,71,29.94,9.0,North,3.5,-,N/A,,Overcast,10,2013-12-02 18:53:00
2:53 PM,46.9,37.9,71,29.93,10.0,NE,4.6,-,N/A,,Clear,40,2013-12-02 19:53:00
3:53 PM,45.0,37.0,74,29.95,10.0,NNE,4.6,-,N/A,,Clear,30,2013-12-02 20:53:00
4:53 PM,37.9,34.0,86,29.93,8.0,NNE,3.5,-,N/A,,Clear,20,2013-12-02 21:53:00
5:53 PM,34.0,32.0,92,29.95,5.0,Calm,Calm,-,N/A,,Clear,0,2013-12-02 22:53:00
6:53 PM,32.0,28.9,88,29.94,6.0,Calm,Calm,-,N/A,,Clear,0,2013-12-02 23:53:00
7:53 PM,30.0,27.0,88,29.95,8.0,Calm,Calm,-,N/A,,Clear,0,2013-12-03 00:53:00
8:53 PM,30.0,26.1,85,29.95,8.0,Calm,Calm,-,N/A,,Clear,0,2013-12-03 01:53:00
9:53 PM,30.0,27.0,88,29.94,5.0,NNW,3.5,-,N/A,,Clear,330,2013-12-03 02:53:00
10:53 PM,32.0,30.0,92,29.93,4.0,Calm,Calm,-,N/A,,Clear,0,2013-12-03 03:53:00
11:25 PM,32.0,30.2,93,29.91,2.5,Calm,Calm,-,N/A,,Clear,0,2013-12-03 04:25:00
11:35 PM,32.0,30.2,93,29.91,4.0,NNW,3.5,-,N/A,,Clear,340,2013-12-03 04:35:00
11:53 PM,32.0,30.0,92,29.91,3.0,NE,4.6,-,N/A,,Clear,40,2013-12-03 04:53:00